Home   Weather   Hartford   Past weeks

Flag for USA Past Weather in Hartford, Connecticut, USA — Yesterday and Last 2 Weeks

Now
35 °F

Light rain. Fog.


Feels Like: 29 °F
Forecast: 34 / 39 °F
Wind: 7 mph from North

Location: Hartford-Brainard Airport

Current Time: Jan 18, 2017 at 7:14:05 am

Latest Report: Jan 18, 2017 at 5:53 am


Visibility: 2 mi

Pressure: 29.95 "Hg

Humidity: 100%

Dew Point: 35 °F

Location of HartfordLocation

Past Weather in Hartford — Graph

°F

Hartford Temperature Yesterday

Maximum temperature yesterday: 40 °F (at 12:53 pm)
Minimum temperature yesterday: 30 °F (at 5:53 am)
Average temperature yesterday: 35 °F

High & Low Weather Summary for the Past Weeks

 TemperatureHumidityPressure
High57 °F (Jan 12, 1:53 pm)100% (Jan 3, 6:53 am)30.74 "Hg (Jan 3, 6:53 am)
Low5 °F (Jan 9, 6:53 am)36% (Jan 5, 2:53 am)29.41 "Hg (Jan 4, 4:53 am)
Average31 °F72%30.18 "Hg
* Reported Jan 3 5:23 am — Jan 18 5:53 am, Hartford, Weather by CustomWeather, © 2017

Note: Actual official high and low records may vary slightly from our data, if they occured in-between our weather recording intervals... More about our weather records

Advertising

Hartford Weather History for the Previous 24 Hours

Scroll right to see more
 ConditionsComfort  
Time TempWeatherWind HumidityBarometerVisibility
5:53 am
Wed, Jan 18
35 °FLight rain. Fog.7 mph100%29.95 "Hg2 mi
5:21 am35 °FLight rain. Fog.8 mph100%29.94 "Hg2 mi
4:00 am35 °FLight rain. Fog.7 mph100%29.94 "Hg3 mi
2:53 am36 °FFog.10 mph97%29.95 "Hg5 mi
1:53 am35 °FLight rain. Fog.7 mph96%29.98 "Hg3 mi
1:14 am35 °FLight rain. Fog.7 mph96%29.99 "Hg2 mi
12:53 am35 °FLight rain. Fog.7 mph100%30.00 "Hg2 mi
11:53 pm
Tue, Jan 17
35 °FFog.7 mph96%30.02 "Hg3 mi
11:12 pm34 °FFog.No wind100%30.05 "Hg2 mi
10:53 pm34 °FFog.6 mph97%30.06 "Hg3 mi
9:53 pm35 °FFog.6 mph92%30.07 "Hg4 mi
8:53 pm34 °FLight rain. Fog.3 mph97%30.10 "Hg3 mi
8:10 pm34 °FLight rain. Fog.3 mph92%30.11 "Hg4 mi
8:02 pm34 °FRain. Fog.No wind92%30.12 "Hg2 mi
6:53 pm34 °FOvercast.5 mph88%30.14 "Hg7 mi
5:53 pm36 °FRain. Overcast.6 mph75%30.15 "Hg4 mi
4:53 pm37 °FOvercast.3 mph79%30.14 "Hg9 mi
3:53 pm37 °FLight rain. Mostly cloudy.5 mph79%30.14 "Hg7 mi
2:53 pm39 °FLight rain. Overcast.3 mph62%30.16 "Hg7 mi
1:53 pm40 °FOvercast.3 mph53%30.16 "Hg10 mi
12:53 pm40 °FOvercast.3 mph58%30.17 "Hg9 mi
11:53 am39 °FMostly cloudy.5 mph60%30.20 "Hg9 mi
10:53 am38 °FMostly cloudy.5 mph68%30.24 "Hg6 mi
9:53 am36 °FOvercast.No wind70%30.25 "Hg8 mi
8:53 am34 °FOvercast.No wind79%30.23 "Hg7 mi
7:53 am32 °FOvercast.No wind88%30.22 "Hg7 mi
Weather by CustomWeather, © 2017

See weather overviewHow to use our weather pages